Location: Peebles
(55.6412°N, 3.1714°W)
Time: 14:01:31
(UTC+01:00)

Cosmos 1378 Rocket - Pass Details

Date: 26 September 2021
Orbit: 602 x 626 km, 82.5° (Epoch: 18 October)

Event Time Altitude Azimuth Distance (km) Brightness Sun altitude
Rises 19:26:43 0° 347° (NNW) 2,905 7.2 -4.5°
Reaches altitude 10° 19:28:57 10° 347° (NNW) 1,998 6.4 -4.8°
Maximum altitude 19:33:23 83° 262° (W) 635 3.7 -5.4°
Drops below altitude 10° 19:37:49 10° 173° (S) 1,995 6.0 -6.1°
Sets 19:40:02 0° 173° (S) 2,899 6.9 -6.4°
